Observations for Trim Market St
| Time | AQI | Temp °C | Hum % | Pres Pa | CO μg/m³ | H₂S μg/m³ | NO μg/m³ | NO₂ μg/m³ | O₃ μg/m³ | SO₂ μg/m³ | PM1 μg/m³ | PM2.5 μg/m³ | PM10 μg/m³ |
|---|---|---|---|---|---|---|---|---|---|---|---|---|---|
| Tuesday 18 August 2026 | |||||||||||||
| 09:10 | 2 | 20.4 | 66 | 56,145 | 0.05 | 0 | 2.83 | 5.09 | 54.63 | 0 | 0 | 1.3 | 2.3 |
| 09:09 | 2 | 20.4 | 66 | 56,131 | 0 | 0 | 2.82 | 5.98 | 56.09 | 0 | 0 | 1.3 | 2.3 |
| 09:08 | 2 | 20.5 | 66 | 56,160 | 0 | 0 | 2.76 | 6.46 | 53.63 | 0 | 0 | 1.3 | 2.3 |
| 09:07 | 2 | 20.5 | 66 | 56,178 | 0 | 0 | 2.83 | 6.58 | 54.33 | 0 | 0 | 1.79 | 3.61 |
| 09:06 | 2 | 20.5 | 66 | 56,213 | 0 | 0 | 2.74 | 7.41 | 57.54 | 0 | 0.71 | 2.77 | 4.26 |
| 09:05 | 2 | 20.5 | 65 | 56,260 | 0 | 0 | 2.9 | 6.58 | 56.69 | 0 | 0.71 | 2.78 | 4.91 |
| 09:04 | 2 | 20.5 | 65 | 56,332 | 0.02 | 0 | 2.98 | 5.77 | 56.44 | 0 | 0 | 1.3 | 2.3 |
| 09:03 | 2 | 20.6 | 65 | 56,367 | 0.14 | 0 | 3.08 | 6.69 | 53.48 | 0 | 0 | 1.3 | 2.3 |
| 09:02 | 2 | 20.6 | 65 | 56,390 | 0.17 | 0 | 2.74 | 6.94 | 54.11 | 0 | 0 | 1.3 | 2.3 |
| 09:01 | 2 | 20.6 | 65 | 56,416 | 0.04 | 0 | 2.93 | 6.69 | 53.19 | 0 | 0 | 1.79 | 2.95 |
| 09:00 | 2 | 20.6 | 65 | 56,445 | 0.05 | 0 | 3.06 | 6.82 | 51.72 | 0 | 0.71 | 1.79 | 2.95 |
| 08:55 | 2 | 20.7 | 66 | 56,432 | 0.07 | 0 | 2.99 | 6.98 | 47.06 | 0 | 0 | 1.29 | 2.31 |
| 08:52 | 2 | 20.7 | 66 | 56,317 | 0.09 | 0 | 2.84 | 5 | 48.46 | 0 | 0 | 1.27 | 2.33 |
| 08:49 | 2 | 20.7 | 66 | 56,194 | 0.13 | 0 | 2.35 | 6.09 | 45.49 | 0 | 0.71 | 2.24 | 3.64 |
| 08:45 | 2 | 20.6 | 67 | 55,967 | 0.14 | 0 | 2.18 | 5.16 | 46.8 | 0 | 0 | 1.23 | 2.37 |
| 08:42 | 2 | 20.5 | 67 | 55,885 | 0.2 | 0 | 1.79 | 5.02 | 43.73 | 0 | 0 | 1.23 | 3.03 |
| 08:41 | 2 | 20.5 | 67 | 55,827 | 0.12 | 0 | 1.77 | 5.25 | 53.34 | 0 | 0 | 2.2 | 4.32 |
| 08:40 | 2 | 20.4 | 67 | 55,795 | 0.11 | 0 | 1.85 | 5.57 | 47.82 | 0 | 0 | 1.22 | 2.39 |
| 08:39 | 2 | 20.4 | 68 | 55,761 | 0.12 | 0 | 2.16 | 5.11 | 51.93 | 0 | 0.71 | 2.19 | 3.68 |
| 08:38 | 2 | 20.4 | 68 | 55,710 | 0.11 | 0 | 1.99 | 4.96 | 52.79 | 0 | 0 | 2.19 | 4.97 |